[[{"header":{"parameterUnit":"m.s-1","parameterCategory":1,"la1":30.2991,"la2":30.254,"lo1":-89.0895,"lo2":-89.0444,"dy":0.0017,"dx":0.0017,"nx":28,"ny":28,"refTime":"2025-01-03T03:00:00:Z","depth":0,"parameterNumber":2,"parameterNumberName":"U-component_of_WINDS"},"data":[0,0,0,0,0,0,0,0,0,0,0,0,0,0,0,0,0,0,0,0,0,0,0,0,0,0,0,0,0,0,0,0,0,0,0,0,0,0,0,0,0,0,0,0,0,0,0,0,0,0,0,0,0,0,0,0,0,0,-1.029,-1.0291,0,-1.0349,-1.0349,-1.035,-1.0311,-1.0309,-1.0307,-1.0305,-1.0366,-1.037,-1.0373,0,0,0,0,0,0,0,0,0,0,0,0,0,-1.0145,-1.0148,-1.029,-1.0291,-1.0291,-1.0349,-1.0349,-1.035,-1.0311,-1.0309,-1.0307,-1.0304,-1.0365,-1.0369,-1.0373,0,0,0,0,0,0,0,0,0,0,0,0,0,-1.0206,-1.0149,-1.029,-1.0279,-1.0278,-1.0348,-1.0349,-1.035,-1.0311,-1.0309,-1.0306,-1.0303,-1.0364,-1.0369,-1.0374,-1.0458,0,0,-1.0389,-1.0391,0,0,0,0,0,0,0,0,-1.0203,-1.0212,-1.028,-1.028,-1.0279,-1.032,-1.0321,-1.0387,-1.0312,-1.0299,-1.0305,-1.0302,-1.0353,-1.0359,-1.0376,-1.0461,-1.0464,-1.0389,-1.0392,-1.0394,-1.0396,0,0,0,0,0,0,0,-1.0199,-1.0209,-1.0313,-1.0281,-1.028,-1.0271,-1.0277,-1.0333,-1.034,-1.03,-1.0297,-1.0305,-1.0352,-1.0371,-1.0377,-1.0465,-1.0389,-1.0394,-1.0397,-1.0399,-1.0624,-1.0626,0,0,0,0,0,0,-1.0195,-1.0206,-1.0311,-1.0315,-1.0234,-1.0276,-1.0282,-1.0309,-1.034,-1.0342,-1.0307,-1.0302,-1.0364,-1.0371,-1.0379,-1.0481,-1.0394,-1.0399,-1.0402,-1.0621,-1.0624,-1.0628,0,0,0,0,0,0,-1.0192,-1.0205,-1.0309,-1.026,-1.0272,-1.0281,-1.0312,-1.0312,-1.033,-1.0345,-1.0346,-1.0324,-1.0362,-1.0372,-1.0439,-1.0482,-1.0401,-1.0406,-1.0617,-1.0622,-1.0626,-1.0685,0,0,0,0,0,0,-1.0188,-1.0204,-1.0236,-1.0261,-1.0275,-1.0368,-1.0315,-1.0315,-1.0339,-1.0334,-1.0362,-1.0364,-1.0361,-1.0432,-1.0444,-1.0488,-1.041,-1.0613,-1.0619,-1.0624,-1.0679,-1.0691,-1.0701,0,0,0,0,0,-1.0183,-1.025,-1.0238,-1.0251,-1.0315,-1.0371,-1.0379,-1.0374,-1.0343,-1.0375,-1.0385,-1.0363,-1.0475,-1.0439,-1.0452,-1.0498,-1.0611,-1.0617,-1.0624,-1.0674,-1.0689,-1.0701,0,0,0,0,0,0,-1.0231,-1.0253,-1.024,-1.0317,-1.0342,-1.0364,-1.0405,-1.0389,-1.0424,-1.0417,-1.041,-1.0416,-1.0487,-1.0499,-1.0458,-1.0582,-1.0538,-1.0548,-1.0572,-1.0586,-1.0596,-1.0592,-1.0414,0,0,0,0,0,-1.025,-1.0293,-1.0311,-1.0377,-1.039,-1.0396,-1.0419,-1.0413,-1.0439,-1.045,-1.0464,-1.049,-1.0532,-1.0559,-1.0598,-1.068,-1.0686,-1.0719,-1.0729,-1.0738,-1.0747,-1.0793,-1.0807,-1.065,-1.065,-1.065,0,0,-1.0291,-1.0309,-1.0336,-1.0387,-1.0406,-1.0451,-1.0405,-1.0454,-1.0488,-1.0457,-1.0522,-1.0533,-1.0562,-1.0638,-1.0672,-1.065,-1.0792,-1.0747,-1.0754,-1.0758,-1.0801,-1.0816,-1.0829,-1.0654,-1.0653,-1.0653,0,0,-1.0389,-1.0406,-1.0463,-1.0483,-1.0512,-1.0515,-1.0529,-1.0554,-1.056,-1.0625,-1.0603,-1.0643,-1.0714,-1.0736,-1.0756,-1.0863,-1.0844,-1.0875,-1.0933,-1.0977,-1.0989,-1.1,-1.1039,-1.1053,-1.0884,-1.0884,-1.0884,0,-1.0436,-1.0503,-1.0495,-1.0547,-1.057,-1.0544,-1.0603,-1.0623,-1.0663,-1.068,-1.0655,-1.0744,-1.0762,-1.0843,-1.0869,-1.0886,-1.0902,-1.0873,-1.0988,-1.0999,-1.1009,-1.1046,-1.1061,-1.0888,-1.0887,-1.0887,-1.0887,0,-1.056,-1.0607,-1.065,-1.0689,-1.0718,-1.0772,-1.0774,-1.0803,-1.0795,-1.08,-1.0867,-1.0887,-1.093,-1.0948,-1.094,-1.1028,-1.1014,-1.0989,-1.0945,-1.1028,-1.1063,-1.1077,-1.0893,-1.0892,-1.089,-1.089,0,0,-1.0689,-1.0724,-1.0741,-1.0759,-1.0789,-1.0825,-1.0879,-1.0921,-1.0947,-1.0976,-1.1021,-1.1082,-1.1059,-1.1082,-1.1077,-1.1116,-1.12,-1.1086,-1.1086,-1.1107,-1.1299,-1.1319,-1.1335,-1.1187,-1.119,-1.1192,-1.1297,0,-1.0789,-1.0883,-1.0878,-1.0967,-1.1011,-1.0987,-1.1034,-1.1058,-1.1065,-1.1103,-1.1111,-1.1155,-1.112,-1.1134,-1.1172,-1.1182,-1.1238,-1.1174,-1.1231,-1.1233,-1.1225,-1.1353,-1.1374,-1.1472,-1.131,-1.1313,-1.1314,0,-1.0919,-1.0952,-1.1045,-1.107,-1.1088,-1.113,-1.1169,-1.1205,-1.1232,-1.1235,-1.1261,-1.1249,-1.1304,-1.1258,-1.1334,-1.129,-1.1313,-1.1321,-1.1325,-1.1331,-1.1279,-1.1363,-1.1503,-1.1518,-1.1335,-1.1334,-1.1332,0,-1.1005,-1.1073,-1.1138,-1.1154,-1.1184,-1.1215,-1.1229,-1.1253,-1.1279,-1.1312,-1.1329,-1.1368,-1.139,-1.1421,-1.142,-1.1386,-1.1498,-1.1451,-1.1502,-1.1502,-1.1527,-1.1526,-1.1673,-1.1541,-1.154,-1.154,-1.154,0,-1.1118,-1.1176,-1.1177,-1.1217,-1.1282,-1.1276,-1.134,-1.1351,-1.1373,-1.1414,-1.1396,-1.1436,-1.1432,-1.1472,-1.1472,-1.1535,-1.1545,-1.1549,-1.1549,-1.1551,-1.1551,-1.1567,-1.1561,-1.1544,-1.1543,-1.1542,-1.1542,0,-1.1226,-1.1229,-1.1298,-1.1321,-1.1328,-1.1375,-1.1395,-1.1433,-1.1438,-1.1491,-1.1503,-1.1512,-1.1558,-1.156,-1.1614,-1.1614,-1.1692,-1.1683,-1.1683,-1.1681,-1.1732,-1.1728,-1.1896,-1.1918,-1.177,-1.1771,-1.1773,0,-1.1298,-1.1342,-1.137,-1.1397,-1.1413,-1.1456,-1.1482,-1.1478,-1.1506,-1.154,-1.1575,-1.1619,-1.1655,-1.173,-1.1741,-1.1782,-1.1775,-1.1831,-1.1781,-1.1783,-1.1777,-1.1775,-1.178,-1.1841,-1.1843,-1.1844,-1.1845,0,-1.1427,-1.1426,-1.1464,-1.1504,-1.1536,-1.1566,-1.1595,-1.1618,-1.1617,-1.165,-1.1697,-1.1725,-1.1779,-1.1824,-1.1864,-1.1878,-1.1863,-1.1861,-1.1875,-1.1879,-1.1877,-1.188,-1.171,-1.1857,-1.1856,-1.1855,-1.1854,-1.1854,-1.152,-1.1558,-1.1584,-1.1628,-1.1649,-1.1676,-1.1713,-1.1723,-1.1762,-1.1807,-1.1802,-1.1855,-1.1881,-1.1933,-1.1951,-1.1992,-1.1973,-1.1993,-1.1998,-1.2004,-1.201,-1.187,-1.1999,-1.1999,-1.1998,-1.1998,-1.1998,0,-1.1648,-1.1663,-1.1704,-1.1744,-1.1779,-1.176,-1.1791,-1.1821,-1.1868,-1.1893,-1.1929,-1.1984,-1.2027,-1.2042,-1.2084,-1.2115,-1.2108,-1.2126,-1.2124,-1.2128,-1.2024,-1.2008,-1.2131,-1.2131,-1.2131,-1.2131,-1.213,-1.213,-1.1719,-1.1783,-1.1786,-1.1861,-1.1876,-1.1928,-1.1947,-1.1972,-1.1993,-1.2055,-1.2091,-1.21,-1.2122,-1.2165,-1.2205,-1.2208,-1.2225,-1.2246,-1.2246,-1.2149,-1.2135,-1.2123,-1.2108,-1.2249,-1.225,-1.2347,-1.2348,-1.2349]},{"header":{"parameterUnit":"m.s-1","parameterCategory":1,"la1":30.2991,"la2":30.254,"lo1":-89.0895,"lo2":-89.0444,"dy":0.0017,"dx":0.0017,"nx":28,"ny":28,"refTime":"2025-01-03T03:00:00:Z","depth":0,"parameterNumber":3,"parameterNumberName":"V-component_of_WINDS"},"data":[0,0,0,0,0,0,0,0,0,0,0,0,0,0,0,0,0,0,0,0,0,0,0,0,0,0,0,0,0,0,0,0,0,0,0,0,0,0,0,0,0,0,0,0,0,0,0,0,0,0,0,0,0,0,0,0,0,0,-2.1089,-2.1089,0,-2.1107,-2.1108,-2.1108,-2.1079,-2.1078,-2.1077,-2.1076,-2.1094,-2.1095,-2.1097,0,0,0,0,0,0,0,0,0,0,0,0,0,-2.1028,-2.1029,-2.1089,-2.1089,-2.1089,-2.1107,-2.1108,-2.1108,-2.1079,-2.1078,-2.1077,-2.1076,-2.1093,-2.1095,-2.1097,0,0,0,0,0,0,0,0,0,0,0,0,0,-2.1051,-2.1029,-2.1089,-2.1077,-2.1077,-2.1107,-2.1108,-2.1108,-2.108,-2.1078,-2.1077,-2.1075,-2.1093,-2.1095,-2.1097,-2.1139,0,0,-2.1103,-2.1104,0,0,0,0,0,0,0,0,-2.105,-2.1053,-2.1079,-2.1078,-2.1077,-2.109,-2.1092,-2.1118,-2.108,-2.1078,-2.1076,-2.1075,-2.1093,-2.1095,-2.1102,-2.114,-2.1141,-2.1103,-2.1105,-2.1106,-2.1106,0,0,0,0,0,0,0,-2.1048,-2.1052,-2.1096,-2.1079,-2.1078,-2.1071,-2.1073,-2.1097,-2.1094,-2.1078,-2.1076,-2.1079,-2.1093,-2.11,-2.1102,-2.1141,-2.1103,-2.1105,-2.1106,-2.1107,-2.1215,-2.1216,0,0,0,0,0,0,-2.1048,-2.1051,-2.1096,-2.1097,-2.106,-2.1073,-2.1075,-2.1087,-2.1094,-2.1093,-2.108,-2.1078,-2.1097,-2.11,-2.1103,-2.1153,-2.1106,-2.1107,-2.1109,-2.1213,-2.1215,-2.1217,0,0,0,0,0,0,-2.1047,-2.1052,-2.1095,-2.1073,-2.1078,-2.1076,-2.109,-2.1088,-2.1096,-2.1095,-2.1094,-2.1089,-2.1096,-2.11,-2.1131,-2.1153,-2.1108,-2.111,-2.1211,-2.1214,-2.1216,-2.1255,0,0,0,0,0,0,-2.1045,-2.1052,-2.1069,-2.1074,-2.108,-2.1123,-2.1091,-2.109,-2.1099,-2.1096,-2.1103,-2.1102,-2.1095,-2.1128,-2.1133,-2.1156,-2.1112,-2.1209,-2.1213,-2.1215,-2.1251,-2.1258,-2.1264,0,0,0,0,0,-2.1043,-2.1078,-2.107,-2.1075,-2.11,-2.1124,-2.1127,-2.1119,-2.1101,-2.1118,-2.1117,-2.1102,-2.115,-2.1131,-2.1136,-2.116,-2.1208,-2.1212,-2.1215,-2.1248,-2.1257,-2.1264,0,0,0,0,0,0,-2.1075,-2.1079,-2.1069,-2.1107,-2.1116,-2.1119,-2.114,-2.1128,-2.1142,-2.1138,-2.1127,-2.1128,-2.1162,-2.1164,-2.1142,-2.1202,-2.1176,-2.1181,-2.1199,-2.1207,-2.1213,-2.1212,-2.1114,0,0,0,0,0,-2.1087,-2.1106,-2.1108,-2.1142,-2.1146,-2.1143,-2.1153,-2.1146,-2.1154,-2.1157,-2.1159,-2.1167,-2.1184,-2.1196,-2.1211,-2.1251,-2.1252,-2.127,-2.1276,-2.1281,-2.1286,-2.1308,-2.1316,-2.1229,-2.1229,-2.1229,0,0,-2.111,-2.1115,-2.1128,-2.1148,-2.1154,-2.1174,-2.1146,-2.1168,-2.1184,-2.116,-2.119,-2.1192,-2.12,-2.1236,-2.1251,-2.1239,-2.131,-2.1286,-2.129,-2.1292,-2.1312,-2.1321,-2.1328,-2.1231,-2.1231,-2.1231,0,0,-2.1165,-2.117,-2.1199,-2.1205,-2.1214,-2.1212,-2.1218,-2.1224,-2.1224,-2.1254,-2.1237,-2.1254,-2.1284,-2.129,-2.1298,-2.1354,-2.1341,-2.136,-2.1393,-2.1414,-2.1421,-2.1427,-2.1448,-2.1455,-2.1364,-2.1364,-2.1364,0,-2.1193,-2.1224,-2.1215,-2.1239,-2.1248,-2.1229,-2.1257,-2.1264,-2.1278,-2.1284,-2.127,-2.1306,-2.131,-2.1348,-2.1362,-2.1368,-2.1375,-2.1359,-2.1421,-2.1427,-2.1432,-2.1452,-2.146,-2.1366,-2.1366,-2.1366,-2.1366,0,-2.1259,-2.128,-2.1302,-2.1317,-2.1328,-2.1355,-2.1349,-2.1362,-2.1353,-2.1352,-2.1382,-2.1386,-2.1403,-2.1411,-2.1403,-2.1447,-2.1439,-2.1422,-2.1396,-2.1443,-2.1461,-2.1469,-2.137,-2.1369,-2.1368,-2.1368,0,0,-2.1335,-2.1344,-2.1352,-2.1358,-2.1367,-2.1383,-2.1408,-2.1425,-2.1436,-2.1446,-2.1467,-2.1492,-2.1477,-2.1486,-2.1478,-2.1496,-2.1542,-2.1478,-2.1478,-2.149,-2.1591,-2.1604,-2.1613,-2.1532,-2.1534,-2.1535,-2.1591,0,-2.1389,-2.1434,-2.1426,-2.1469,-2.1489,-2.147,-2.1492,-2.15,-2.1499,-2.1515,-2.1514,-2.1532,-2.1511,-2.1516,-2.1533,-2.1533,-2.1562,-2.1528,-2.1552,-2.1553,-2.1552,-2.1623,-2.1636,-2.1689,-2.1598,-2.1599,-2.16,0,-2.1459,-2.1473,-2.1518,-2.1524,-2.1532,-2.1552,-2.1566,-2.1582,-2.159,-2.1588,-2.1597,-2.1586,-2.1611,-2.1584,-2.1618,-2.1595,-2.1604,-2.1605,-2.1607,-2.161,-2.158,-2.1628,-2.1705,-2.1714,-2.1611,-2.161,-2.1609,0,-2.1511,-2.154,-2.1571,-2.1577,-2.1584,-2.1599,-2.1603,-2.1609,-2.1619,-2.1632,-2.1638,-2.1653,-2.1661,-2.1673,-2.1666,-2.1647,-2.1701,-2.1673,-2.17,-2.17,-2.1713,-2.1713,-2.1794,-2.1718,-2.1718,-2.1717,-2.1717,0,-2.1574,-2.1603,-2.1595,-2.1614,-2.1645,-2.1635,-2.1667,-2.1668,-2.1674,-2.1692,-2.1676,-2.1694,-2.1684,-2.17,-2.1695,-2.1724,-2.1728,-2.1727,-2.1725,-2.1729,-2.1729,-2.1735,-2.1732,-2.172,-2.1719,-2.1719,-2.1718,0,-2.1638,-2.1633,-2.1666,-2.167,-2.1672,-2.1695,-2.1698,-2.1716,-2.1714,-2.1738,-2.1743,-2.1739,-2.1758,-2.1752,-2.1772,-2.1768,-2.1806,-2.1799,-2.1804,-2.1802,-2.183,-2.1827,-2.1918,-2.193,-2.1846,-2.1846,-2.1847,0,-2.1678,-2.17,-2.1707,-2.1718,-2.1723,-2.1742,-2.1753,-2.1744,-2.1755,-2.1766,-2.1782,-2.18,-2.1814,-2.1845,-2.1844,-2.1859,-2.1853,-2.1884,-2.1855,-2.1858,-2.1854,-2.1854,-2.1856,-2.189,-2.1891,-2.1892,-2.1892,0,-2.1751,-2.1748,-2.1764,-2.178,-2.1793,-2.1805,-2.1815,-2.1825,-2.1817,-2.1831,-2.185,-2.1861,-2.1882,-2.19,-2.1913,-2.1916,-2.1903,-2.1901,-2.1908,-2.1913,-2.1915,-2.1915,-2.182,-2.1899,-2.1899,-2.1898,-2.1898,-2.1898,-2.1805,-2.1824,-2.1832,-2.185,-2.1857,-2.1867,-2.1884,-2.1884,-2.19,-2.1917,-2.191,-2.1933,-2.1939,-2.1957,-2.1962,-2.1979,-2.1967,-2.1977,-2.198,-2.1983,-2.1987,-2.1911,-2.1981,-2.1981,-2.1981,-2.1981,-2.198,0,-2.1878,-2.1882,-2.1899,-2.1915,-2.1929,-2.1915,-2.1926,-2.1939,-2.1959,-2.1967,-2.1981,-2.2003,-2.202,-2.202,-2.2036,-2.205,-2.2044,-2.2054,-2.2054,-2.2055,-2.1996,-2.1989,-2.2059,-2.2059,-2.2059,-2.2059,-2.2059,-2.2059,-2.1918,-2.1949,-2.1947,-2.198,-2.1984,-2.2006,-2.2014,-2.2022,-2.2029,-2.2055,-2.2069,-2.2069,-2.2074,-2.209,-2.2105,-2.2104,-2.2111,-2.2124,-2.2121,-2.2067,-2.2059,-2.2051,-2.2044,-2.2125,-2.2125,-2.2178,-2.2179,-2.2179]}]]